Weather History for Auburn, IN

Change the Weather History Date:

Saturday, September 7, 2013

  Actual Average (KFWA) Record (KFWA)
Temperature  
Mean Temperature 72 °F 68 °F  
Max Temperature 86 °F 79 °F 99 °F (1939)
Min Temperature 57 °F 56 °F 41 °F (1962)
Degree Days  
Heating Degree Days 0 1  
Month to date heating degree days 7  
Since 1 July heating degree days 19  
Cooling Degree Days 6 4  
Month to date cooling degree days 32  
Year to date cooling degree days 749  
Growing Degree Days 22 (Base 50)    
Moisture  
Dew Point 56 °F    
Average Humidity 59    
Maximum Humidity 77    
Minimum Humidity 37    
Precipitation  
Precipitation 0.00 in 0.10 in 1.19 in (2012)
Month to date precipitation 0.68  
Year to date precipitation 27.52  
Snow  
Snow 0.00 in 0.00 in 0.00 in (2002)
Month to date snowfall 0.0  
Since 1 July snowfall 0.0  
Since 1 September snowfall 0.0  
Snow Depth -    
Sea Level Pressure  
Sea Level Pressure 30.02 in    
Wind  
Wind Speed 2 mph (WSW)    
Max Wind Speed 12 mph    
Max Gust Speed 17 mph    
T = Trace of Precipitation, MM = Missing Value Source: NWS Daily Summary

Daily Weather History Graph

Daily Weather History Graph

Search for Another Location

Airport:

Trip Planner

Search our weather history database for the weather conditions in past years. The results will help you decide how hot, cold, wet, or windy it might be!

Date:

Astronomy

Sep. 07, 2013 Rise Set
Actual Time 7:12 AM EDT 8:02 PM EDT
Civil Twilight 6:44 AM EDT 8:30 PM EDT
Nautical Twilight 6:11 AM EDT 9:03 PM EDT
Astronomical Twilight 5:36 AM EDT 9:38 PM EDT
Moon 9:28 AM EDT (9/7) 8:58 PM EDT (9/7)
Length of Visible Light 13h 45m
Length of Day
12h 49m
Waxing Crescent, 5% of the Moon is Illuminated
Sep 7
Waxing Crescent
Sep 12
First Quarter
Sep 19
Full
Sep 26
Last Quarter
Oct 4
New

Hourly Weather History & Observations

Time (EDT) Temp. Heat Index Dew Point Humidity Pressure Visibility Wind Dir Wind Speed Gust Speed Precip Events Conditions
12:15 AM 62.6 °F - 46.4 °F 55% 30.09 in - Calm Calm - N/A   Clear
12:35 AM 62.6 °F - 46.4 °F 55% 30.09 in - Calm Calm - N/A   Clear
12:55 AM 60.8 °F - 46.4 °F 59% 30.09 in - Calm Calm - N/A   Clear
1:15 AM 59.0 °F - 50.0 °F 72% 30.09 in - Calm Calm - N/A   Clear
1:35 AM 59.0 °F - 50.0 °F 72% 30.09 in - Calm Calm - N/A   Clear
1:55 AM 59.0 °F - 50.0 °F 72% 30.09 in - Calm Calm - N/A   Clear
2:15 AM 57.2 °F - 50.0 °F 77% 30.09 in - Calm Calm - N/A   Clear
2:35 AM 59.0 °F - 50.0 °F 72% 30.09 in - Calm Calm - N/A   Clear
2:55 AM 57.2 °F - 50.0 °F 77% 30.08 in - Calm Calm - N/A   Clear
3:15 AM 59.0 °F - 50.0 °F 72% 30.09 in - Calm Calm - N/A   Scattered Clouds
3:35 AM 59.0 °F - 50.0 °F 72% 30.08 in - Calm Calm - N/A   Overcast
3:55 AM 59.0 °F - 51.8 °F 77% 30.08 in - Calm Calm - N/A   Overcast
4:15 AM 60.8 °F - 51.8 °F 72% 30.08 in - Calm Calm - N/A   Overcast
4:35 AM 60.8 °F - 50.0 °F 68% 30.08 in - Calm Calm - N/A   Scattered Clouds
4:55 AM 59.0 °F - 51.8 °F 77% 30.07 in - Calm Calm - N/A   Clear
5:15 AM 59.0 °F - 51.8 °F 77% 30.07 in - Calm Calm - N/A   Clear
5:35 AM 60.8 °F - 51.8 °F 72% 30.07 in - Calm Calm - N/A   Clear
5:55 AM 59.0 °F - 51.8 °F 77% 30.07 in - Calm Calm - N/A   Clear
6:15 AM 59.0 °F - 51.8 °F 77% 30.07 in - Calm Calm - N/A   Clear
6:35 AM 59.0 °F - 51.8 °F 77% 30.07 in - Calm Calm - N/A   Clear
6:55 AM 60.8 °F - 51.8 °F 72% 30.07 in - SSW 3.5 mph - N/A   Clear
7:15 AM 62.6 °F - 51.8 °F 68% 30.07 in - SSW 4.6 mph - N/A   Clear
7:35 AM 60.8 °F - 51.8 °F 72% 30.07 in - SW 4.6 mph - N/A   Clear
7:55 AM 62.6 °F - 51.8 °F 68% 30.07 in - SW 4.6 mph - N/A   Clear
8:15 AM 62.6 °F - 51.8 °F 68% 30.06 in - SW 5.8 mph - N/A   Clear
8:35 AM 64.4 °F - 53.6 °F 68% 30.06 in - SW 5.8 mph - N/A   Clear
8:55 AM 66.2 °F - 53.6 °F 64% 30.06 in - WSW 8.1 mph - N/A   Clear
9:15 AM 68.0 °F - 53.6 °F 60% 30.06 in - SW 5.8 mph - N/A   Clear
9:35 AM 68.0 °F - 55.4 °F 64% 30.05 in - SW 5.8 mph - N/A   Clear
9:55 AM 71.6 °F - 55.4 °F 57% 30.05 in - WSW 8.1 mph - N/A   Clear
10:15 AM 71.6 °F - 57.2 °F 60% 30.05 in - WSW 5.8 mph - N/A   Clear
10:35 AM 73.4 °F - 59.0 °F 61% 30.05 in - WSW 8.1 mph - N/A   Clear
10:55 AM 77.0 °F - 60.8 °F 57% 30.05 in - WSW 4.6 mph - N/A   Clear
11:15 AM 78.8 °F - 60.8 °F 54% 30.05 in - West 5.8 mph - N/A   Clear
11:35 AM 78.8 °F - 60.8 °F 54% 30.04 in - SW 8.1 mph - N/A   Clear
11:55 AM 80.6 °F 81.5 °F 60.8 °F 51% 30.03 in - SW 8.1 mph 16.1 mph N/A   Clear
12:15 PM 80.6 °F 81.5 °F 60.8 °F 51% 30.03 in - SW 6.9 mph - N/A   Clear
12:35 PM 80.6 °F 81.5 °F 60.8 °F 51% 30.03 in - SW 11.5 mph - N/A   Clear
12:55 PM 82.4 °F 82.5 °F 59.0 °F 45% 30.02 in - West 9.2 mph 17.3 mph N/A   Scattered Clouds
1:15 PM 82.4 °F 82.5 °F 59.0 °F 45% 30.01 in - West 9.2 mph - N/A   Scattered Clouds
1:35 PM 80.6 °F 81.1 °F 59.0 °F 48% 30.01 in - WSW 8.1 mph 17.3 mph N/A   Clear
1:55 PM 84.2 °F 83.8 °F 59.0 °F 42% 30.00 in - West 9.2 mph - N/A   Clear
2:15 PM 86.0 °F 85.4 °F 59.0 °F 40% 30.00 in - WSW 4.6 mph - N/A   Clear
2:35 PM 84.2 °F 83.8 °F 59.0 °F 42% 29.99 in - WSW 10.4 mph - N/A   Clear
2:55 PM 82.4 °F 82.5 °F 59.0 °F 45% 29.98 in - WSW 3.5 mph - N/A   Clear
3:15 PM 82.4 °F 82.5 °F 59.0 °F 45% 29.97 in - SW 4.6 mph - N/A   Clear
3:35 PM 82.4 °F 82.5 °F 59.0 °F 45% 29.97 in - SSW 5.8 mph - N/A   Clear
3:55 PM 84.2 °F 83.5 °F 57.2 °F 40% 29.97 in - WSW 5.8 mph - N/A   Clear
4:15 PM 86.0 °F 84.9 °F 57.2 °F 37% 29.96 in - West 5.8 mph - N/A   Clear
4:35 PM 86.0 °F 84.9 °F 57.2 °F 37% 29.96 in - WSW 6.9 mph - N/A   Clear
4:55 PM 84.2 °F 83.5 °F 57.2 °F 40% 29.96 in - WSW 5.8 mph - N/A   Scattered Clouds
5:15 PM 84.2 °F 83.0 °F 55.4 °F 37% 29.97 in - West 6.9 mph - N/A   Scattered Clouds
5:35 PM 84.2 °F 83.5 °F 57.2 °F 40% 29.96 in - WSW 6.9 mph - N/A   Clear
5:55 PM 84.2 °F 83.8 °F 59.0 °F 42% 29.95 in - WSW 3.5 mph - N/A   Clear
6:15 PM 82.4 °F 82.0 °F 57.2 °F 42% 29.95 in - WSW 4.6 mph - N/A   Clear
6:35 PM 82.4 °F 82.0 °F 57.2 °F 42% 29.95 in - WSW 4.6 mph - N/A   Scattered Clouds
6:55 PM 80.6 °F 81.1 °F 59.0 °F 48% 29.95 in - WSW 3.5 mph - N/A   Clear
7:15 PM 80.6 °F 81.1 °F 59.0 °F 48% 29.95 in - SW 3.5 mph - N/A   Clear
7:35 PM 80.6 °F 81.1 °F 59.0 °F 48% 29.94 in - SSW 3.5 mph - N/A   Clear
7:55 PM 78.8 °F - 59.0 °F 51% 29.93 in - SW 3.5 mph - N/A   Clear
8:15 PM 78.8 °F - 60.8 °F 54% 29.95 in - SW 4.6 mph - N/A   Clear
8:35 PM 77.0 °F - 59.0 °F 54% 29.95 in - SW 4.6 mph - N/A   Clear
8:55 PM 77.0 °F - 59.0 °F 54% 29.95 in - Calm Calm - N/A   Clear
9:15 PM 71.6 °F - 60.8 °F 69% 29.96 in - Calm Calm - N/A   Clear
9:35 PM 71.6 °F - 60.8 °F 69% 29.96 in - Calm Calm - N/A   Mostly Cloudy
9:55 PM 73.4 °F - 60.8 °F 65% 29.97 in - Calm Calm - N/A   Overcast
10:15 PM 71.6 °F - 62.6 °F 73% 29.97 in - Calm Calm - N/A   Overcast
10:35 PM 73.4 °F - 62.6 °F 69% 29.97 in - West 3.5 mph - N/A   Overcast
10:55 PM 73.4 °F - 62.6 °F 69% 29.97 in - Calm Calm - N/A   Overcast
11:15 PM 71.6 °F - 62.6 °F 73% 29.97 in - Calm Calm - N/A   Overcast
11:35 PM 71.6 °F - 62.6 °F 73% 29.97 in - Calm Calm - N/A   Overcast
11:55 PM 73.4 °F - 62.6 °F 69% 29.97 in - Calm Calm - N/A   Overcast